[[{"header":{"parameterUnit":"m.s-1","parameterCategory":2,"la1":30.2991,"la2":30.254,"lo1":-89.0895,"lo2":-89.0444,"dy":0.0017,"dx":0.0017,"nx":28,"ny":28,"refTime":"2024-12-09T03:00:00:Z","depth":"0","parameterNumber":2,"parameterNumberName":"U-component_of_CURRENTS"},"data":[0,0,0,0,0,0,0,0,0,0,0,0,0,0,0,0,0,0,0,0,0,0,0,0,0,0,0,0,0,0,0,0,0,0,0,0,0,0,0,0,0,0,0,0,0,0,0,0,0,0,0,0,0,0,0,0,0,0,0.1877,0.1878,0,0.194,0.194,0.1941,0.2011,0.2013,0.2014,0.2015,0.2046,0.2045,0.2045,0,0,0,0,0,0,0,0,0,0,0,0,0,0.1942,0.194,0.1877,0.1878,0.1879,0.194,0.194,0.1941,0.2011,0.2013,0.2014,0.2016,0.2046,0.2045,0.2045,0,0,0,0,0,0,0,0,0,0,0,0,0,0.1948,0.1939,0.1877,0.1924,0.1929,0.194,0.194,0.1941,0.2011,0.2013,0.2015,0.2016,0.2046,0.2045,0.2045,0.2003,0,0,0.2043,0.2043,0,0,0,0,0,0,0,0,0.1947,0.1945,0.1916,0.192,0.1926,0.1972,0.1975,0.1961,0.201,0.1977,0.2015,0.2017,0.2018,0.202,0.2025,0.2005,0.2006,0.2043,0.2043,0.2043,0.2042,0,0,0,0,0,0,0,0.1946,0.1943,0.19,0.1917,0.1923,0.1984,0.1985,0.1973,0.1984,0.198,0.1986,0.1996,0.2021,0.2025,0.2026,0.2006,0.2043,0.2043,0.2042,0.2042,0.209,0.2092,0,0,0,0,0,0,0.1934,0.1941,0.1898,0.1902,0.1944,0.1981,0.1982,0.1953,0.1985,0.1992,0.1994,0.1999,0.2025,0.2026,0.2027,0.2065,0.2043,0.2042,0.2042,0.2089,0.2091,0.2092,0,0,0,0,0,0,0.1935,0.1928,0.1895,0.1928,0.1929,0.1977,0.1944,0.1954,0.1968,0.1996,0.2003,0.2001,0.2026,0.2028,0.2064,0.2064,0.2042,0.2041,0.2087,0.2089,0.2092,0.2087,0,0,0,0,0,0,0.1935,0.1927,0.1918,0.1925,0.1926,0.1919,0.1943,0.1953,0.1972,0.1979,0.2004,0.2009,0.2028,0.2065,0.2064,0.2063,0.2041,0.2085,0.2088,0.2091,0.2085,0.2089,0.2092,0,0,0,0,0,0.1937,0.1947,0.1915,0.1912,0.1904,0.1919,0.1926,0.1967,0.197,0.1984,0.2021,0.2008,0.2083,0.2066,0.2064,0.2063,0.2083,0.2087,0.2091,0.2083,0.2088,0.2092,0,0,0,0,0,0,0.1984,0.1955,0.1921,0.192,0.1914,0.1933,0.1965,0.1959,0.1993,0.2002,0.2022,0.203,0.2067,0.2068,0.2048,0.2092,0.2082,0.2085,0.2077,0.2082,0.2085,0.2051,0.204,0,0,0,0,0,0.1975,0.1968,0.1939,0.1937,0.1933,0.1931,0.1945,0.1949,0.1975,0.1992,0.2008,0.2038,0.2075,0.2083,0.2112,0.2115,0.2127,0.2119,0.2123,0.2125,0.2101,0.2148,0.2153,0.2104,0.2104,0.2104,0,0,0.2003,0.1978,0.198,0.1946,0.1945,0.1933,0.1946,0.1959,0.196,0.1985,0.2012,0.2047,0.2084,0.2119,0.2131,0.2118,0.2152,0.213,0.2131,0.2105,0.2152,0.2157,0.216,0.2107,0.2106,0.2106,0,0,0.2029,0.2011,0.1995,0.1985,0.1963,0.1959,0.1953,0.195,0.1971,0.1981,0.2023,0.2059,0.2087,0.2125,0.2146,0.2176,0.2177,0.2189,0.2161,0.2208,0.2212,0.2215,0.2253,0.2259,0.2179,0.2179,0.2179,0,0.2045,0.2011,0.2002,0.1973,0.1976,0.1961,0.1941,0.1955,0.1967,0.1988,0.1996,0.2063,0.2089,0.2138,0.216,0.2178,0.2206,0.2138,0.221,0.2213,0.2216,0.2254,0.2261,0.218,0.218,0.218,0.218,0,0.2039,0.2018,0.2023,0.1962,0.1962,0.1963,0.1951,0.1963,0.1969,0.1978,0.2027,0.2067,0.2104,0.2125,0.2146,0.2186,0.2201,0.2216,0.2189,0.222,0.226,0.2267,0.218,0.218,0.218,0.218,0,0,0.2043,0.2016,0.2016,0.1989,0.1958,0.1955,0.1963,0.197,0.198,0.1999,0.202,0.208,0.2089,0.2113,0.2144,0.217,0.2224,0.2192,0.2194,0.2211,0.2328,0.2231,0.223,0.2257,0.2258,0.2259,0.2352,0,0.2027,0.1983,0.1978,0.1958,0.1933,0.1941,0.1947,0.1956,0.1977,0.2001,0.2042,0.2077,0.2091,0.2106,0.2136,0.2209,0.2241,0.2197,0.231,0.2312,0.2208,0.2234,0.2117,0.2179,0.2359,0.236,0.2361,0,0.1996,0.1976,0.1942,0.1936,0.1928,0.1922,0.1935,0.1936,0.1974,0.1993,0.2023,0.2057,0.2104,0.2105,0.2213,0.2189,0.2247,0.2293,0.2299,0.2203,0.2227,0.2177,0.2186,0.2013,0.2372,0.2371,0.237,0,0.1977,0.1956,0.1933,0.1928,0.1909,0.192,0.1921,0.1939,0.1953,0.1987,0.2001,0.2059,0.2084,0.2165,0.2236,0.2244,0.2342,0.2377,0.2345,0.234,0.2254,0.2238,0.2084,0.2445,0.2445,0.2445,0.2444,0,0.1953,0.1948,0.193,0.1919,0.191,0.1901,0.1904,0.1918,0.1938,0.1944,0.199,0.2005,0.2099,0.2161,0.2238,0.2292,0.2352,0.2327,0.235,0.2251,0.2234,0.209,0.2056,0.2448,0.2447,0.2447,0.2446,0,0.1949,0.1924,0.1902,0.1894,0.1891,0.1885,0.1894,0.1898,0.1916,0.1923,0.1935,0.1988,0.2057,0.2138,0.226,0.2279,0.2262,0.2361,0.222,0.2221,0.201,0.1984,0.1895,0.1861,0.2352,0.235,0.2349,0,0.1958,0.1934,0.1893,0.1869,0.1874,0.1869,0.1858,0.1878,0.1884,0.1908,0.1912,0.197,0.1998,0.2112,0.2151,0.2244,0.2191,0.2174,0.2152,0.195,0.1941,0.1914,0.1892,0.2066,0.2062,0.2059,0.2056,0,0.1986,0.1952,0.1931,0.1872,0.1852,0.1833,0.1834,0.1837,0.1844,0.1849,0.186,0.1887,0.1949,0.1953,0.2019,0.2071,0.2002,0.211,0.1951,0.172,0.1635,0.1628,0.2052,0.2028,0.2031,0.2033,0.2035,0.2036,0.2016,0.1999,0.1936,0.1888,0.1845,0.1803,0.1787,0.1784,0.1772,0.1756,0.1797,0.1804,0.1783,0.1853,0.1829,0.1666,0.1816,0.1635,0.1634,0.1634,0.1527,0.1858,0.1818,0.1819,0.182,0.1822,0.1823,0,0.2039,0.2005,0.1961,0.1874,0.1817,0.1798,0.1764,0.1734,0.1697,0.1691,0.1684,0.1641,0.1554,0.1496,0.1328,0.12,0.1198,0.1144,0.1069,0.109,0.1411,0.1314,0.1097,0.1097,0.1097,0.1097,0.1097,0.1098,0.2041,0.1997,0.1959,0.1862,0.1804,0.1723,0.1695,0.1644,0.1629,0.1546,0.1504,0.1489,0.1351,0.1039,0.0751,0.0729,0.065,0.0628,0.0668,0.0833,0.0877,0.092,0.0813,0.0494,0.0494,0.0299,0.0297,0.0295]},{"header":{"parameterUnit":"m.s-1","parameterCategory":2,"la1":30.2991,"la2":30.254,"lo1":-89.0895,"lo2":-89.0444,"dy":0.0017,"dx":0.0017,"nx":28,"ny":28,"refTime":"2024-12-09T03:00:00:Z","depth":"0","parameterNumber":3,"parameterNumberName":"V-component_of_CURRENTS"},"data":[0,0,0,0,0,0,0,0,0,0,0,0,0,0,0,0,0,0,0,0,0,0,0,0,0,0,0,0,0,0,0,0,0,0,0,0,0,0,0,0,0,0,0,0,0,0,0,0,0,0,0,0,0,0,0,0,0,0,0.0451,0.0452,0,0.0551,0.0552,0.0553,0.0597,0.0597,0.0597,0.0597,0.0604,0.0604,0.0604,0,0,0,0,0,0,0,0,0,0,0,0,0,0.0412,0.0411,0.045,0.0452,0.0454,0.0551,0.0552,0.0553,0.0597,0.0597,0.0597,0.0598,0.0604,0.0604,0.0604,0,0,0,0,0,0,0,0,0,0,0,0,0,0.0458,0.0411,0.045,0.049,0.0495,0.0551,0.0552,0.0553,0.0597,0.0597,0.0597,0.0598,0.0604,0.0604,0.0604,0.0597,0,0,0.0604,0.0604,0,0,0,0,0,0,0,0,0.0455,0.0459,0.0483,0.0488,0.0493,0.0565,0.0541,0.0565,0.0597,0.0554,0.0597,0.0598,0.0585,0.0587,0.06,0.0598,0.0598,0.0604,0.0604,0.0604,0.0604,0,0,0,0,0,0,0,0.0452,0.0456,0.0486,0.0484,0.0491,0.0543,0.0548,0.0547,0.0561,0.0558,0.0562,0.058,0.0587,0.06,0.0601,0.0598,0.0604,0.0604,0.0604,0.0604,0.0632,0.0633,0,0,0,0,0,0,0.0441,0.0452,0.0483,0.049,0.0479,0.0543,0.0549,0.0538,0.0564,0.057,0.0579,0.0581,0.06,0.0601,0.0601,0.0629,0.0604,0.0604,0.0604,0.0631,0.0632,0.0633,0,0,0,0,0,0,0.0439,0.0441,0.0479,0.0478,0.0487,0.0543,0.0531,0.054,0.0555,0.0582,0.0585,0.0585,0.0601,0.0601,0.0617,0.0628,0.0604,0.0604,0.063,0.0632,0.0633,0.0663,0,0,0,0,0,0,0.0437,0.0439,0.043,0.0476,0.0487,0.0502,0.0532,0.0542,0.0567,0.0571,0.0587,0.0589,0.0601,0.0617,0.0617,0.0628,0.0604,0.0629,0.0631,0.0632,0.0661,0.0665,0.0668,0,0,0,0,0,0.0435,0.0443,0.0428,0.0433,0.047,0.0502,0.0512,0.0552,0.0567,0.0567,0.0597,0.0588,0.0626,0.0618,0.0618,0.0628,0.0629,0.0631,0.0632,0.0659,0.0664,0.0668,0,0,0,0,0,0,0.0427,0.045,0.0435,0.0447,0.0459,0.0511,0.0535,0.0547,0.0572,0.0577,0.0597,0.0601,0.0621,0.0618,0.0608,0.0641,0.0625,0.0627,0.0646,0.0651,0.0654,0.0634,0.0604,0,0,0,0,0,0.0414,0.0422,0.0437,0.0444,0.0451,0.0482,0.0503,0.0516,0.0549,0.056,0.0579,0.0601,0.0628,0.0633,0.0648,0.0658,0.0655,0.0665,0.0669,0.0672,0.0656,0.0678,0.0682,0.0639,0.0639,0.0639,0,0,0.0423,0.0429,0.0439,0.0442,0.0462,0.0478,0.0495,0.052,0.0541,0.0554,0.0593,0.061,0.0634,0.0661,0.0668,0.0659,0.0686,0.0674,0.0677,0.0659,0.068,0.0684,0.0688,0.064,0.064,0.0639,0,0,0.0433,0.0434,0.0433,0.0445,0.0458,0.048,0.048,0.0513,0.0535,0.0561,0.0591,0.0614,0.0643,0.0672,0.069,0.0716,0.0706,0.0718,0.0719,0.0741,0.0745,0.0747,0.0759,0.0763,0.0719,0.0719,0.0719,0,0.0422,0.0425,0.0441,0.044,0.0461,0.0478,0.0483,0.0515,0.0549,0.0569,0.0572,0.0637,0.0652,0.0701,0.0716,0.0724,0.0728,0.0703,0.0745,0.0748,0.0751,0.0762,0.0765,0.0721,0.072,0.072,0.072,0,0.0422,0.0433,0.0445,0.0443,0.0462,0.0478,0.0511,0.0531,0.0557,0.0585,0.0625,0.0655,0.069,0.0705,0.072,0.075,0.0746,0.075,0.0733,0.0757,0.0767,0.077,0.0723,0.0722,0.0722,0.0722,0,0,0.0373,0.0426,0.0429,0.044,0.0464,0.0485,0.0522,0.0556,0.0589,0.0616,0.0657,0.0703,0.0708,0.0727,0.0747,0.0761,0.0792,0.0758,0.0758,0.0765,0.0832,0.0794,0.0794,0.0805,0.0806,0.0806,0.0836,0,0.0353,0.0373,0.0399,0.0435,0.0457,0.049,0.0526,0.0562,0.0602,0.0649,0.0683,0.0726,0.0725,0.074,0.0757,0.0793,0.08,0.0782,0.0809,0.081,0.077,0.0796,0.0844,0.0871,0.0839,0.084,0.084,0,0.034,0.0356,0.0381,0.0444,0.0452,0.0474,0.0533,0.056,0.0628,0.0655,0.0694,0.0728,0.0773,0.0758,0.0811,0.0801,0.0805,0.0819,0.0822,0.077,0.0777,0.084,0.0878,0.087,0.0845,0.0844,0.0844,0,0.032,0.0359,0.0383,0.0402,0.0456,0.0476,0.0503,0.0562,0.0595,0.0658,0.0688,0.0743,0.0774,0.0798,0.0831,0.0825,0.0875,0.0879,0.0842,0.0839,0.0875,0.0874,0.0902,0.0886,0.0886,0.0886,0.0886,0,0.031,0.0335,0.0382,0.0397,0.0424,0.0463,0.0499,0.0533,0.0589,0.0631,0.0683,0.0728,0.0782,0.0826,0.0841,0.0855,0.0887,0.0835,0.0844,0.0887,0.0886,0.0874,0.0857,0.0887,0.0886,0.0886,0.0886,0,0.0302,0.033,0.036,0.0405,0.0421,0.0438,0.0492,0.0523,0.057,0.0625,0.0645,0.073,0.0784,0.0826,0.0874,0.0865,0.0891,0.087,0.0907,0.0917,0.0857,0.084,0.0837,0.088,0.0841,0.084,0.0839,0,0.0303,0.0321,0.0358,0.0368,0.0389,0.0423,0.0447,0.0503,0.0539,0.063,0.0657,0.0729,0.0795,0.0851,0.0866,0.0886,0.0873,0.0891,0.0875,0.0851,0.084,0.0823,0.0861,0.095,0.0951,0.0951,0.0951,0,0.0299,0.031,0.0326,0.0349,0.0374,0.0404,0.045,0.0481,0.0546,0.0605,0.0689,0.0754,0.082,0.0889,0.0889,0.0893,0.0906,0.0891,0.0881,0.0925,0.0898,0.0946,0.0921,0.0953,0.0953,0.0953,0.0953,0.0952,0.0291,0.0297,0.0318,0.0338,0.0357,0.0389,0.0421,0.0479,0.0541,0.0644,0.0705,0.083,0.0919,0.0951,0.0929,0.0914,0.0898,0.0906,0.0889,0.0875,0.0904,0.0856,0.0878,0.0877,0.0876,0.0876,0.0876,0,0.0283,0.0296,0.0313,0.0334,0.0348,0.0369,0.0424,0.0463,0.0536,0.0668,0.0761,0.0957,0.0992,0.1019,0.0994,0.0944,0.0969,0.0911,0.0936,0.0978,0.0964,0.0956,0.0977,0.0977,0.0977,0.0977,0.0977,0.0977,0.0284,0.029,0.0302,0.0325,0.0341,0.0376,0.0409,0.0467,0.0566,0.0752,0.0919,0.1056,0.115,0.1,0.0944,0.0939,0.0964,0.0921,0.0921,0.0929,0.0928,0.0928,0.0918,0.0931,0.0931,0.0997,0.0998,0.0998]}],[{"header":{"parameterUnit":"m.s-1","parameterCategory":2,"la1":30.2991,"la2":30.254,"lo1":-89.0895,"lo2":-89.0444,"dy":0.0017,"dx":0.0017,"nx":28,"ny":28,"refTime":"2024-12-09T03:00:00:Z","depth":"2","parameterNumber":2,"parameterNumberName":"U-component_of_CURRENTS"},"data":[0,0,0,0,0,0,0,0,0,0,0,0,0,0,0,0,0,0,0,0,0,0,0,0,0,0,0,0,0,0,0,0,0,0,0,0,0,0,0,0,0,0,0,0,0,0,0,0,0,0,0,0,0,0,0,0,0,0,-0.0707,-0.0706,0,-0.0655,-0.0654,-0.0653,-0.0641,-0.0642,-0.0642,-0.0643,-0.067,-0.067,-0.0671,0,0,0,0,0,0,0,0,0,0,0,0,0,-0.0724,-0.0724,-0.0707,-0.0706,-0.0706,-0.0655,-0.0654,-0.0653,-0.0641,-0.0642,-0.0642,-0.0643,-0.067,-0.067,-0.0671,0,0,0,0,0,0,0,0,0,0,0,0,0,-0.0697,-0.0724,-0.0707,-0.0695,-0.0694,-0.0655,-0.0654,-0.0653,-0.0641,-0.0642,-0.0643,-0.0643,-0.067,-0.067,-0.0671,-0.0657,0,0,-0.0672,-0.0672,0,0,0,0,0,0,0,0,-0.0699,-0.0696,-0.0697,-0.0696,-0.0694,-0.0657,-0.067,-0.0659,-0.0641,-0.0659,-0.0643,-0.0644,-0.0674,-0.0674,-0.0658,-0.0658,-0.0659,-0.0672,-0.0672,-0.0672,-0.0672,0,0,0,0,0,0,0,-0.0701,-0.0698,-0.0684,-0.0697,-0.0695,-0.0668,-0.0665,-0.0667,-0.0663,-0.0657,-0.0657,-0.0654,-0.0673,-0.0658,-0.0659,-0.066,-0.0672,-0.0672,-0.0672,-0.0672,-0.0615,-0.0613,0,0,0,0,0,0,-0.0714,-0.07,-0.0686,-0.0683,-0.0701,-0.0667,-0.0664,-0.0666,-0.0661,-0.066,-0.0653,-0.0654,-0.0657,-0.0659,-0.066,-0.0599,-0.0672,-0.0672,-0.0673,-0.0617,-0.0614,-0.0613,0,0,0,0,0,0,-0.0714,-0.0713,-0.0688,-0.0691,-0.0687,-0.0667,-0.0669,-0.0665,-0.0645,-0.0657,-0.0658,-0.0637,-0.0658,-0.066,-0.0647,-0.0602,-0.0673,-0.0673,-0.0619,-0.0616,-0.0614,-0.0505,0,0,0,0,0,0,-0.0715,-0.0714,-0.0712,-0.0693,-0.0687,-0.0658,-0.0668,-0.0664,-0.0644,-0.0643,-0.0644,-0.0647,-0.0659,-0.0646,-0.0647,-0.0604,-0.0673,-0.0621,-0.0617,-0.0614,-0.0511,-0.0499,-0.0489,0,0,0,0,0,-0.0716,-0.0706,-0.0713,-0.071,-0.0688,-0.0657,-0.065,-0.0638,-0.0642,-0.0624,-0.0623,-0.0647,-0.0626,-0.0645,-0.0647,-0.0602,-0.0622,-0.0618,-0.0615,-0.0515,-0.0501,-0.0489,0,0,0,0,0,0,-0.0707,-0.0704,-0.071,-0.07,-0.068,-0.0656,-0.0638,-0.0631,-0.0613,-0.0615,-0.0628,-0.063,-0.0602,-0.062,-0.064,-0.0576,-0.0627,-0.0623,-0.0551,-0.0538,-0.0527,-0.0508,-0.0673,0,0,0,0,0,-0.0708,-0.0703,-0.0692,-0.0681,-0.0674,-0.0655,-0.064,-0.0631,-0.0616,-0.0607,-0.0603,-0.06,-0.0585,-0.0578,-0.0576,-0.0542,-0.0554,-0.0515,-0.0504,-0.0494,-0.048,-0.046,-0.0446,-0.06,-0.06,-0.06,0,0,-0.0699,-0.0698,-0.0693,-0.0679,-0.0664,-0.0632,-0.0647,-0.0619,-0.0579,-0.0615,-0.0562,-0.0567,-0.0571,-0.0528,-0.0516,-0.0537,-0.0454,-0.0489,-0.0481,-0.0472,-0.0455,-0.044,-0.0426,-0.0597,-0.0598,-0.0598,0,0,-0.0673,-0.068,-0.0665,-0.0646,-0.0627,-0.0611,-0.0602,-0.0572,-0.0548,-0.0505,-0.0514,-0.0489,-0.0472,-0.045,-0.0442,-0.0372,-0.0403,-0.0374,-0.0294,-0.0275,-0.0262,-0.0251,-0.0236,-0.0225,-0.0361,-0.0361,-0.0361,0,-0.0663,-0.0645,-0.0651,-0.0626,-0.0602,-0.0599,-0.0561,-0.0528,-0.0492,-0.0462,-0.048,-0.042,-0.0427,-0.036,-0.0327,-0.0344,-0.0344,-0.0342,-0.0259,-0.0249,-0.0239,-0.0227,-0.0216,-0.0355,-0.0356,-0.0356,-0.0357,0,-0.0625,-0.0603,-0.0588,-0.0559,-0.0532,-0.0498,-0.0464,-0.0426,-0.0403,-0.0372,-0.0307,-0.0302,-0.0266,-0.0256,-0.0266,-0.0189,-0.0216,-0.0253,-0.0291,-0.0217,-0.0209,-0.0199,-0.0347,-0.0349,-0.0351,-0.0352,0,0,-0.0612,-0.0572,-0.0562,-0.0538,-0.0493,-0.0467,-0.0396,-0.0331,-0.0285,-0.0239,-0.0172,-0.0121,-0.0121,-0.0111,-0.0116,-0.0087,-0.0015,-0.0128,-0.013,-0.011,0.0031,-0.0046,-0.0043,-0.0038,-0.0036,-0.0034,0.0012,0,-0.0575,-0.0526,-0.0505,-0.0434,-0.0404,-0.037,-0.0307,-0.0249,-0.0204,-0.0141,-0.0104,-0.0057,-0.0064,-0.0048,-0.0009,-0.0027,0.0015,-0.0024,-0.0047,-0.0048,-0.0122,-0.0033,-0.0045,-0.001,0.0022,0.0023,0.0024,0,-0.0538,-0.051,-0.0452,-0.038,-0.0363,-0.0318,-0.0231,-0.0173,-0.0087,-0.0053,0.0014,0.0029,0.0102,0.0062,0.0119,0.0093,0.0087,0.0073,0.0073,-0.0029,-0.0106,-0.0082,0.0006,0.004,0.0039,0.0038,0.0037,0,-0.0539,-0.0463,-0.042,-0.0396,-0.0323,-0.0279,-0.0229,-0.0146,-0.0098,-0.0,0.0028,0.0116,0.0137,0.0167,0.0163,0.0144,0.0197,0.0155,0.009,0.0084,0.0053,0.0039,0.0206,0.0206,0.0206,0.0206,0.0206,0,-0.0511,-0.047,-0.0419,-0.0398,-0.0335,-0.0277,-0.0203,-0.0143,-0.0064,-0.0009,0.0066,0.0103,0.0161,0.0195,0.0196,0.0179,0.0229,0.0129,0.0101,0.0089,0.0079,0.0095,0.0082,0.0208,0.0207,0.0207,0.0207,0,-0.052,-0.0487,-0.0441,-0.0369,-0.0342,-0.0301,-0.0212,-0.0157,-0.0084,-0.0015,0.0015,0.01,0.0153,0.0201,0.0234,0.0196,0.0195,0.0175,0.0156,0.0124,0.0064,0.0055,0.0117,0.0115,0.0113,0.0112,0.011,0,-0.052,-0.0504,-0.0447,-0.0424,-0.0392,-0.0323,-0.0273,-0.018,-0.0134,-0.003,-0.0009,0.0074,0.0088,0.0118,0.0106,0.0111,0.0177,0.0105,0.0062,0.0094,0.006,0.0054,0.0049,0.0077,0.0076,0.0074,0.0074,0,-0.0527,-0.0522,-0.0497,-0.046,-0.0413,-0.0344,-0.0272,-0.0248,-0.014,-0.0089,-0.0034,-0.0023,-0.0011,-0.0008,-0.0004,-0.0011,0.0103,0.0074,0.0147,0.0076,0.0052,0.002,0.0017,0.0063,0.0064,0.0065,0.0066,0.0066,-0.0543,-0.0541,-0.0524,-0.048,-0.0432,-0.0366,-0.0309,-0.0247,-0.0185,-0.0102,-0.0113,-0.0087,-0.0107,-0.0133,-0.0097,-0.0024,-0.0061,-0.0015,-0.0009,-0.0002,-0.004,-0.0069,-0.0087,-0.0087,-0.0087,-0.0087,-0.0086,0,-0.0547,-0.0545,-0.0529,-0.0485,-0.0447,-0.0383,-0.0301,-0.0253,-0.0185,-0.0118,-0.01,-0.0174,-0.0194,-0.0118,-0.0077,-0.0121,-0.0103,-0.0044,0.0015,0.0022,0.0029,-0.0004,-0.0042,-0.0041,-0.004,-0.004,0,0,-0.0548,-0.0551,-0.0544,-0.0499,-0.045,-0.0355,-0.029,-0.0217,-0.0153,-0.0135,-0.0096,-0.0185,-0.0175,-0.0121,-0.0115,-0.0022,0.0019,-0.0019,-0.0067,0.001,0.0019,0.0014,-0.0034,0,0,0,0,0]},{"header":{"parameterUnit":"m.s-1","parameterCategory":2,"la1":30.2991,"la2":30.254,"lo1":-89.0895,"lo2":-89.0444,"dy":0.0017,"dx":0.0017,"nx":28,"ny":28,"refTime":"2024-12-09T03:00:00:Z","depth":"2","parameterNumber":3,"parameterNumberName":"V-component_of_CURRENTS"},"data":[0,0,0,0,0,0,0,0,0,0,0,0,0,0,0,0,0,0,0,0,0,0,0,0,0,0,0,0,0,0,0,0,0,0,0,0,0,0,0,0,0,0,0,0,0,0,0,0,0,0,0,0,0,0,0,0,0,0,0.0033,0.0033,0,0.0036,0.0036,0.0036,-0.0003,-0.0004,-0.0005,-0.0006,-0.0074,-0.0075,-0.0076,0,0,0,0,0,0,0,0,0,0,0,0,0,0.0007,0.0007,0.0033,0.0033,0.0033,0.0036,0.0036,0.0036,-0.0003,-0.0004,-0.0005,-0.0006,-0.0074,-0.0075,-0.0076,0,0,0,0,0,0,0,0,0,0,0,0,0,0.0015,0.0008,0.0033,0.0014,0.0012,0.0036,0.0036,0.0036,-0.0002,-0.0004,-0.0006,-0.0007,-0.0074,-0.0075,-0.0076,-0.0052,0,0,-0.008,-0.008,0,0,0,0,0,0,0,0,0.0014,0.0016,0.0017,0.0015,0.0013,0.0014,0.0002,0.0003,-0.0002,0.0003,-0.0006,-0.0008,-0.005,-0.0053,-0.0048,-0.0055,-0.0058,-0.008,-0.0081,-0.0081,-0.0081,0,0,0,0,0,0,0,0.0014,0.0016,0.0034,0.0017,0.0015,0.001,0.0009,0.0002,-0.0016,0.0003,-0.0,0.0001,-0.0052,-0.0047,-0.005,-0.0059,-0.008,-0.0081,-0.0082,-0.0082,-0.0092,-0.0092,0,0,0,0,0,0,0.0015,0.0015,0.0034,0.0034,0.001,0.0011,0.0011,0.0016,-0.0014,-0.002,0.0002,-0.0001,-0.0044,-0.0049,-0.0053,-0.0056,-0.0081,-0.0082,-0.0083,-0.0093,-0.0092,-0.0091,0,0,0,0,0,0,0.0014,0.0017,0.0034,0.0024,0.0026,0.0013,0.002,0.0017,0.0008,-0.0014,-0.0021,-0.0006,-0.0045,-0.0051,-0.0067,-0.0058,-0.0083,-0.0084,-0.0093,-0.0092,-0.0092,-0.0044,0,0,0,0,0,0,0.0014,0.0017,0.0022,0.0025,0.0026,0.0047,0.0021,0.0018,0.0012,0.0007,-0.0022,-0.003,-0.0047,-0.0065,-0.0068,-0.006,-0.0085,-0.0094,-0.0093,-0.0092,-0.0046,-0.0041,-0.0038,0,0,0,0,0,0.0013,0.0029,0.0023,0.0025,0.0035,0.0048,0.0049,0.0034,0.0013,0.0018,-0.0008,-0.0029,-0.0062,-0.0065,-0.0069,-0.0062,-0.0094,-0.0093,-0.0092,-0.0048,-0.0042,-0.0038,0,0,0,0,0,0,0.0021,0.0026,0.002,0.0036,0.0041,0.0041,0.0046,0.0034,0.0021,0.0008,-0.0021,-0.0028,-0.0038,-0.0055,-0.0058,-0.0062,-0.0082,-0.0082,-0.0047,-0.0042,-0.0038,-0.0026,-0.0086,0,0,0,0,0,0.0027,0.0039,0.0041,0.0055,0.0057,0.005,0.0052,0.0042,0.0031,0.0023,0.0004,-0.0018,-0.0031,-0.0043,-0.0054,-0.0054,-0.0071,-0.0053,-0.0049,-0.0046,-0.0039,-0.0074,-0.0073,-0.0088,-0.0088,-0.0088,0,0,0.0032,0.0039,0.0043,0.0057,0.0058,0.0075,0.0047,0.0051,0.006,0.0018,0.002,-0.0003,-0.0028,-0.0029,-0.0035,-0.0046,-0.0043,-0.0044,-0.0041,-0.0036,-0.0073,-0.0072,-0.007,-0.0087,-0.0087,-0.0087,0,0,0.0058,0.0055,0.0076,0.0083,0.0088,0.0088,0.0087,0.0086,0.0076,0.0082,0.0048,0.0028,0.0018,-0.0001,-0.0012,0.0008,-0.0019,0.0003,0.0031,-0.0003,-0.0002,-0.0001,0.0008,0.0009,0.0003,0.0003,0.0003,0,0.0066,0.0093,0.0084,0.0108,0.0119,0.0095,0.012,0.0115,0.0107,0.0103,0.0086,0.006,0.0034,0.0024,0.003,0.0017,0.0006,0.0015,0.0003,0.0002,0.0002,0.0011,0.0012,0.0005,0.0005,0.0005,0.0005,0,0.0109,0.013,0.0142,0.0166,0.0175,0.0192,0.0185,0.0185,0.017,0.0162,0.0149,0.0115,0.0098,0.0085,0.0065,0.0051,0.0049,0.0013,-0.001,0.0006,0.0016,0.0015,0.0009,0.0008,0.0007,0.0007,0,0,0.0125,0.0167,0.017,0.0196,0.0206,0.0223,0.0233,0.0241,0.0245,0.0225,0.0228,0.0198,0.0168,0.0153,0.0116,0.0084,0.0078,0.0052,0.0049,0.0064,0.0034,0.0137,0.0146,0.0032,0.0032,0.0031,0.0052,0,0.0161,0.0226,0.0231,0.0283,0.0314,0.03,0.0319,0.0315,0.03,0.0296,0.0246,0.0237,0.0196,0.0185,0.0147,0.009,0.0074,0.0078,0.0014,0.0013,0.0103,0.0148,0.008,0.0101,0.0051,0.0051,0.0051,0,0.0193,0.0238,0.03,0.0352,0.0363,0.0386,0.0404,0.0417,0.0393,0.0377,0.0346,0.0308,0.0269,0.0223,0.0149,0.0152,0.0106,0.006,0.0059,0.0137,0.0115,0.007,0.0102,0.005,0.005,0.005,0.005,0,0.0212,0.028,0.0335,0.0352,0.0404,0.0424,0.0447,0.044,0.0444,0.0424,0.0418,0.0365,0.0339,0.0264,0.0196,0.0163,0.012,0.0058,0.0115,0.0123,0.0046,0.0049,0.0011,0.0011,0.0011,0.0011,0.0011,0,0.0247,0.0283,0.0351,0.0381,0.0441,0.0462,0.05,0.0506,0.0501,0.0503,0.0461,0.045,0.0342,0.0306,0.0227,0.0204,0.0151,0.0146,0.0137,0.0068,0.0072,-0.0,-0.0002,0.0011,0.0011,0.0011,0.0011,0,0.0242,0.0287,0.0354,0.0429,0.045,0.0491,0.0537,0.0554,0.0555,0.0552,0.0549,0.051,0.0484,0.0414,0.0311,0.027,0.0218,0.022,0.0185,0.0175,0.0232,0.0232,0.0277,0.0281,0.0284,0.0287,0.0289,0,0.0248,0.0284,0.0379,0.0422,0.0455,0.0514,0.0543,0.0568,0.0572,0.0587,0.0578,0.0582,0.0567,0.0519,0.0443,0.0385,0.0331,0.031,0.0238,0.0274,0.0259,0.0255,0.0251,0.0149,0.015,0.0151,0.0151,0,0.0258,0.0285,0.0347,0.0439,0.0491,0.0535,0.0576,0.058,0.0597,0.0617,0.0634,0.0639,0.0619,0.054,0.0513,0.0453,0.0318,0.0331,0.034,0.0125,0.0164,0.0147,0.0144,0.0158,0.0158,0.0157,0.0157,0.0156,0.0253,0.0295,0.038,0.0457,0.0513,0.0535,0.0558,0.059,0.0617,0.0626,0.0633,0.0615,0.0498,0.0444,0.0426,0.0439,0.0432,0.0342,0.0333,0.0325,0.034,0.0385,0.0426,0.0427,0.0427,0.0428,0.0429,0,0.0245,0.0296,0.0388,0.0484,0.0535,0.0544,0.0562,0.0572,0.0599,0.0632,0.0646,0.0454,0.0395,0.0355,0.038,0.0382,0.0313,0.0369,0.023,0.0224,0.0218,0.0221,0.0278,0.0278,0.0278,0.0278,0,0,0.0248,0.0315,0.037,0.047,0.0517,0.0537,0.0524,0.0548,0.0569,0.058,0.0552,0.0438,0.0363,0.0281,0.0265,0.032,0.029,0.0323,0.0438,0.0272,0.0267,0.0191,0.0191,0,0,0,0,0]}],[{"header":{"parameterUnit":"m.s-1","parameterCategory":2,"la1":30.2991,"la2":30.254,"lo1":-89.0895,"lo2":-89.0444,"dy":0.0017,"dx":0.0017,"nx":28,"ny":28,"refTime":"2024-12-09T03:00:00:Z","depth":"4","parameterNumber":2,"parameterNumberName":"U-component_of_CURRENTS"},"data":[0,0,0,0,0,0,0,0,0,0,0,0,0,0,0,0,0,0,0,0,0,0,0,0,0,0,0,0,0,0,0,0,0,0,0,0,0,0,0,0,0,0,0,0,0,0,0,0,0,0,0,0,0,0,0,0,0,0,-0.0543,-0.0543,0,-0.0554,-0.0553,-0.0553,-0.0554,-0.0554,-0.0554,-0.0554,-0.0593,-0.0594,-0.0595,0,0,0,0,0,0,0,0,0,0,0,0,0,-0.0517,-0.0517,-0.0543,-0.0543,-0.0544,-0.0554,-0.0553,-0.0553,-0.0554,-0.0554,-0.0554,-0.0554,-0.0593,-0.0594,-0.0595,0,0,0,0,0,0,0,0,0,0,0,0,0,-0.0525,-0.0517,-0.0543,-0.0547,-0.0548,-0.0554,-0.0553,-0.0553,-0.0554,-0.0554,-0.0554,-0.0554,-0.0592,-0.0594,-0.0595,-0.0599,0,0,-0.0599,-0.06,0,0,0,0,0,0,0,0,-0.0525,-0.0526,-0.0546,-0.0547,-0.0548,-0.0555,-0.0559,-0.0571,-0.0554,-0.0548,-0.0554,-0.0554,-0.0585,-0.0587,-0.0584,-0.0601,-0.0602,-0.0599,-0.06,-0.0601,-0.0601,0,0,0,0,0,0,0,-0.0524,-0.0525,-0.0544,-0.0547,-0.0548,-0.0547,-0.0548,-0.0561,-0.0563,-0.0549,-0.055,-0.0556,-0.0585,-0.0582,-0.0585,-0.0603,-0.0599,-0.06,-0.0601,-0.0602,-0.0699,-0.07,0,0,0,0,0,0,-0.0529,-0.0525,-0.0544,-0.0545,-0.054,-0.0547,-0.0549,-0.055,-0.0563,-0.0565,-0.0555,-0.0556,-0.058,-0.0583,-0.0586,-0.0661,-0.0601,-0.0602,-0.0603,-0.0697,-0.0699,-0.0701,0,0,0,0,0,0,-0.0528,-0.053,-0.0543,-0.0538,-0.054,-0.0548,-0.055,-0.055,-0.0567,-0.0568,-0.0571,-0.0574,-0.058,-0.0584,-0.0618,-0.066,-0.0602,-0.0604,-0.0695,-0.0697,-0.07,-0.0766,0,0,0,0,0,0,-0.0527,-0.053,-0.0537,-0.0538,-0.054,-0.0556,-0.055,-0.0551,-0.057,-0.0571,-0.0584,-0.0587,-0.0581,-0.0616,-0.0619,-0.066,-0.0605,-0.0692,-0.0696,-0.0699,-0.0761,-0.077,-0.0778,0,0,0,0,0,-0.0526,-0.0533,-0.0537,-0.054,-0.0548,-0.0557,-0.0558,-0.0563,-0.0572,-0.0579,-0.0595,-0.0587,-0.0639,-0.0618,-0.0621,-0.0664,-0.0691,-0.0695,-0.0699,-0.0758,-0.0769,-0.0778,0,0,0,0,0,0,-0.0526,-0.0534,-0.0539,-0.0548,-0.0558,-0.0559,-0.0569,-0.0577,-0.0594,-0.0604,-0.0604,-0.0608,-0.0649,-0.065,-0.0627,-0.0703,-0.0667,-0.0671,-0.071,-0.0721,-0.0729,-0.0711,-0.0606,0,0,0,0,0,-0.0531,-0.0537,-0.0546,-0.0556,-0.0563,-0.0572,-0.058,-0.0587,-0.06,-0.0608,-0.0621,-0.0643,-0.0665,-0.0687,-0.0695,-0.0741,-0.0722,-0.0773,-0.0782,-0.0789,-0.0778,-0.0772,-0.0778,-0.0714,-0.0714,-0.0714,0,0,-0.0536,-0.054,-0.0546,-0.0557,-0.0565,-0.0579,-0.0576,-0.0597,-0.0617,-0.0612,-0.0649,-0.0664,-0.0679,-0.0723,-0.0745,-0.0735,-0.0805,-0.0794,-0.08,-0.0785,-0.0777,-0.0782,-0.0788,-0.0717,-0.0716,-0.0716,0,0,-0.0544,-0.0553,-0.0561,-0.0572,-0.0591,-0.0597,-0.061,-0.0627,-0.0644,-0.069,-0.0686,-0.0718,-0.0771,-0.0774,-0.0788,-0.0847,-0.0838,-0.0876,-0.0919,-0.0915,-0.0919,-0.0923,-0.0935,-0.0939,-0.0895,-0.0895,-0.0895,0,-0.0551,-0.0558,-0.0566,-0.0578,-0.0593,-0.061,-0.0629,-0.0646,-0.0676,-0.0695,-0.0715,-0.0774,-0.0788,-0.0823,-0.0858,-0.0864,-0.0872,-0.088,-0.0924,-0.0926,-0.0929,-0.094,-0.0944,-0.0899,-0.0898,-0.0898,-0.0897,0,-0.056,-0.0573,-0.0581,-0.0601,-0.0621,-0.0638,-0.0667,-0.0696,-0.0736,-0.0755,-0.0807,-0.0828,-0.0868,-0.0889,-0.0905,-0.094,-0.0945,-0.0922,-0.0893,-0.0939,-0.0949,-0.0952,-0.0904,-0.0903,-0.0901,-0.0901,0,0,-0.055,-0.058,-0.058,-0.0601,-0.0635,-0.0652,-0.0696,-0.0731,-0.0762,-0.0812,-0.0855,-0.0907,-0.0928,-0.0944,-0.096,-0.0969,-0.1014,-0.0978,-0.0976,-0.0982,-0.1033,-0.0952,-0.0947,-0.1011,-0.1012,-0.1012,-0.1043,0,-0.0552,-0.0568,-0.059,-0.0627,-0.0645,-0.0684,-0.072,-0.0761,-0.0809,-0.0854,-0.0886,-0.0933,-0.0948,-0.099,-0.1003,-0.1004,-0.1021,-0.1009,-0.0994,-0.0993,-0.0907,-0.0946,-0.1012,-0.1045,-0.1045,-0.1045,-0.1046,0,-0.0547,-0.056,-0.0588,-0.0642,-0.0655,-0.0693,-0.0758,-0.0797,-0.0856,-0.0895,-0.0947,-0.0974,-0.1018,-0.1018,-0.1041,-0.1046,-0.1053,-0.1044,-0.1044,-0.0938,-0.0915,-0.0982,-0.1049,-0.1049,-0.1049,-0.1049,-0.1048,0,-0.0523,-0.0561,-0.0584,-0.0601,-0.0663,-0.0707,-0.0755,-0.0818,-0.0852,-0.0931,-0.0966,-0.101,-0.1062,-0.1057,-0.1072,-0.1075,-0.1074,-0.1066,-0.0991,-0.0987,-0.102,-0.1015,-0.1064,-0.1064,-0.1064,-0.1064,-0.1064,0,-0.0507,-0.0527,-0.0583,-0.06,-0.0646,-0.0712,-0.0773,-0.0823,-0.0893,-0.0916,-0.0996,-0.1003,-0.108,-0.1092,-0.1081,-0.1045,-0.1085,-0.0995,-0.0982,-0.1053,-0.1052,-0.1023,-0.1018,-0.1065,-0.1065,-0.1065,-0.1064,0,-0.0475,-0.0504,-0.0538,-0.0609,-0.064,-0.0683,-0.0779,-0.0808,-0.0893,-0.093,-0.0961,-0.1036,-0.1048,-0.1082,-0.1087,-0.1061,-0.1017,-0.099,-0.1081,-0.1073,-0.0939,-0.0938,-0.092,-0.0917,-0.0915,-0.0913,-0.0911,0,-0.0458,-0.047,-0.0533,-0.0555,-0.0598,-0.067,-0.0704,-0.0799,-0.0823,-0.0903,-0.09,-0.0968,-0.0997,-0.0945,-0.0984,-0.0968,-0.0948,-0.0956,-0.0934,-0.0932,-0.0922,-0.0924,-0.0925,-0.0908,-0.0907,-0.0906,-0.0906,0,-0.0425,-0.0447,-0.0468,-0.0511,-0.0557,-0.0583,-0.0651,-0.0661,-0.0749,-0.083,-0.0817,-0.0834,-0.0855,-0.0872,-0.0894,-0.086,-0.0964,-0.0931,-0.0936,-0.0915,-0.0916,-0.0909,-0.0913,-0.0898,-0.0899,-0.09,-0.09,0,-0.0399,-0.0392,-0.042,-0.0461,-0.0495,-0.0489,-0.0532,-0.056,-0.0598,-0.0702,-0.0678,-0.073,-0.0814,-0.0811,-0.0789,-0.0798,-0.0788,-0.0776,-0.0789,-0.0799,-0.0745,-0.0728,-0.0637,0,0,0,0,0,-0.0363,-0.0349,-0.0371,-0.0384,-0.0409,-0.0427,-0.0482,-0.0523,-0.0607,-0.0573,-0.0634,-0.0628,-0.0647,-0.067,-0.0655,-0.0736,-0.0791,-0.0716,-0.0783,-0.0853,-0.0862,-0.0811,0,0,0,0,0,0,-0.0337,-0.0339,-0.0344,-0.0316,-0.031,-0.0313,-0.034,-0.039,-0.0385,-0.0482,-0.0488,-0.0581,-0.06,-0.0635,-0.0633,-0.0647,-0.0676,-0.0765,-0.0764,-0.0847,-0.0856,-0.0863,-0.0814,0,0,0,0,0]},{"header":{"parameterUnit":"m.s-1","parameterCategory":2,"la1":30.2991,"la2":30.254,"lo1":-89.0895,"lo2":-89.0444,"dy":0.0017,"dx":0.0017,"nx":28,"ny":28,"refTime":"2024-12-09T03:00:00:Z","depth":"4","parameterNumber":3,"parameterNumberName":"V-component_of_CURRENTS"},"data":[0,0,0,0,0,0,0,0,0,0,0,0,0,0,0,0,0,0,0,0,0,0,0,0,0,0,0,0,0,0,0,0,0,0,0,0,0,0,0,0,0,0,0,0,0,0,0,0,0,0,0,0,0,0,0,0,0,0,0.0087,0.0087,0,0.0108,0.0108,0.0109,0.0132,0.0132,0.0133,0.0133,0.0164,0.0165,0.0165,0,0,0,0,0,0,0,0,0,0,0,0,0,0.0091,0.009,0.0087,0.0087,0.0087,0.0108,0.0108,0.0109,0.0132,0.0132,0.0133,0.0133,0.0164,0.0164,0.0165,0,0,0,0,0,0,0,0,0,0,0,0,0,0.0099,0.009,0.0087,0.0101,0.0102,0.0108,0.0108,0.0109,0.0132,0.0132,0.0133,0.0133,0.0164,0.0164,0.0165,0.0163,0,0,0.0168,0.0168,0,0,0,0,0,0,0,0,0.0098,0.0099,0.0098,0.01,0.0101,0.0117,0.0121,0.0127,0.0132,0.0122,0.0133,0.0133,0.0148,0.015,0.0155,0.0164,0.0166,0.0168,0.0169,0.0169,0.0169,0,0,0,0,0,0,0,0.0098,0.0098,0.0096,0.0099,0.01,0.0114,0.0115,0.0122,0.0133,0.0122,0.0124,0.0125,0.0149,0.0154,0.0156,0.0166,0.0168,0.0169,0.0169,0.017,0.0185,0.0185,0,0,0,0,0,0,0.0092,0.0097,0.0095,0.0097,0.01,0.0113,0.0115,0.0112,0.0133,0.0136,0.0124,0.0126,0.0152,0.0155,0.0157,0.0158,0.0169,0.017,0.017,0.0185,0.0185,0.0185,0,0,0,0,0,0,0.0091,0.0091,0.0095,0.0097,0.0099,0.0113,0.0109,0.0112,0.0119,0.0134,0.0138,0.0128,0.0152,0.0156,0.0162,0.0159,0.017,0.0171,0.0185,0.0185,0.0185,0.0159,0,0,0,0,0,0,0.0091,0.0091,0.0089,0.0097,0.0098,0.0094,0.0109,0.0113,0.0118,0.012,0.0138,0.0142,0.0153,0.016,0.0163,0.0161,0.0172,0.0185,0.0185,0.0185,0.016,0.0158,0.0156,0,0,0,0,0,0.0091,0.0082,0.0088,0.0088,0.0094,0.0093,0.0095,0.0108,0.0118,0.0117,0.013,0.0141,0.0161,0.0161,0.0164,0.0162,0.0185,0.0185,0.0185,0.0161,0.0158,0.0156,0,0,0,0,0,0,0.0082,0.0084,0.0091,0.0083,0.0087,0.0097,0.0096,0.0106,0.0116,0.012,0.0138,0.0141,0.0146,0.0157,0.0157,0.0166,0.0176,0.0176,0.0157,0.0154,0.0152,0.015,0.0172,0,0,0,0,0,0.0078,0.0073,0.0079,0.0073,0.0074,0.0086,0.0089,0.0097,0.0105,0.0111,0.0122,0.0136,0.0147,0.0153,0.0161,0.0165,0.0185,0.0167,0.0165,0.0163,0.0163,0.019,0.0191,0.0184,0.0184,0.0184,0,0,0.0073,0.0073,0.0071,0.0071,0.0076,0.0069,0.0089,0.0089,0.0087,0.0112,0.0112,0.0128,0.0146,0.015,0.0153,0.0159,0.0176,0.0163,0.0161,0.0162,0.019,0.019,0.0191,0.0183,0.0184,0.0184,0,0,0.0056,0.006,0.005,0.0049,0.0052,0.0057,0.0056,0.0065,0.0074,0.0076,0.0095,0.011,0.0121,0.0136,0.0145,0.0138,0.0163,0.0141,0.013,0.0157,0.0157,0.0158,0.0186,0.019,0.0141,0.0141,0.0141,0,0.0053,0.0037,0.0047,0.0034,0.0029,0.0049,0.0035,0.0045,0.0055,0.0063,0.0071,0.01,0.0114,0.0129,0.0128,0.0134,0.0154,0.0137,0.0154,0.0156,0.0157,0.0185,0.019,0.014,0.014,0.014,0.0141,0,0.0026,0.0014,0.0007,-0.0003,-0.0006,-0.0016,-0.0006,-0.0002,0.0012,0.0027,0.0045,0.007,0.0089,0.0097,0.011,0.0128,0.0141,0.0147,0.016,0.0156,0.0186,0.0191,0.0138,0.0139,0.0139,0.0139,0,0,0.0017,-0.0007,-0.0009,-0.0025,-0.0028,-0.0037,-0.0039,-0.0033,-0.0031,-0.0007,0.0001,0.0031,0.0055,0.0068,0.0092,0.0117,0.0146,0.0136,0.0138,0.0162,0.0208,0.0149,0.0149,0.0157,0.0158,0.0158,0.0225,0,-0.0006,-0.0042,-0.0044,-0.0077,-0.0096,-0.0085,-0.0091,-0.008,-0.0062,-0.005,-0.0005,0.0009,0.0042,0.0051,0.0084,0.0127,0.0158,0.0128,0.0208,0.0211,0.0158,0.0152,0.016,0.0229,0.023,0.0231,0.0231,0,-0.0032,-0.0054,-0.0091,-0.012,-0.0126,-0.0141,-0.0147,-0.0147,-0.0117,-0.01,-0.0065,-0.0031,0.0013,0.0036,0.0123,0.0102,0.0154,0.0192,0.0196,0.0153,0.016,0.0233,0.0241,0.024,0.0239,0.0239,0.0238,0,-0.0052,-0.0089,-0.0121,-0.0132,-0.0157,-0.0169,-0.0177,-0.0162,-0.0163,-0.013,-0.0127,-0.006,-0.0038,0.004,0.0114,0.0125,0.0203,0.0228,0.0229,0.0226,0.0272,0.0271,0.0291,0.0291,0.0291,0.0291,0.029,0,-0.008,-0.0108,-0.0136,-0.0156,-0.0196,-0.0198,-0.0224,-0.0219,-0.0207,-0.0215,-0.0154,-0.0155,-0.0038,0.0017,0.0102,0.0167,0.0196,0.0224,0.0235,0.026,0.0256,0.0276,0.0274,0.0293,0.0293,0.0292,0.0292,0,-0.0103,-0.0118,-0.0162,-0.0196,-0.021,-0.0239,-0.027,-0.0282,-0.0266,-0.0277,-0.027,-0.0218,-0.0158,-0.0049,0.0068,0.0131,0.0211,0.0229,0.024,0.0251,0.023,0.0225,0.0253,0.0251,0.025,0.0249,0.0248,0,-0.0119,-0.0142,-0.0195,-0.0227,-0.0248,-0.0287,-0.0313,-0.0312,-0.0323,-0.0328,-0.0335,-0.0292,-0.0248,-0.0118,-0.0012,0.014,0.016,0.0217,0.0237,0.0216,0.0225,0.0222,0.0219,0.0246,0.0245,0.0245,0.0245,0,-0.0151,-0.0165,-0.0202,-0.0262,-0.0304,-0.0351,-0.0385,-0.0398,-0.0398,-0.039,-0.0383,-0.0323,-0.0269,-0.0151,-0.0047,0.0063,0.019,0.0204,0.0209,0.0228,0.0208,0.0217,0.0216,0.024,0.0241,0.0241,0.0241,0,-0.0171,-0.0204,-0.0244,-0.0294,-0.0352,-0.0398,-0.0415,-0.0429,-0.0436,-0.0422,-0.0433,-0.0366,-0.0318,-0.0196,-0.0105,-0.0005,0.0036,0.0099,0.011,0.0117,0.0048,0.0001,-0.0026,0,0,0,0,0,-0.019,-0.0221,-0.0274,-0.033,-0.0383,-0.0405,-0.0455,-0.046,-0.0464,-0.0457,-0.0436,-0.0385,-0.0271,-0.0232,-0.014,-0.013,0.0047,-0.002,0.0126,0.0214,0.0219,0.0155,0,0,0,0,0,0,-0.0208,-0.0253,-0.0274,-0.0338,-0.0373,-0.0427,-0.0456,-0.0462,-0.0448,-0.0443,-0.0382,-0.0349,-0.0237,-0.031,-0.013,-0.0107,0.0,0.0035,0.0037,0.021,0.0215,0.022,0.0155,0,0,0,0,0]}]]